Погода в Розе

Россия / Челябинская область     54°54′56″N   61°27′26″E
темп.,
°C
ветер,
м/с
пор.,
м/с
влажн.,
%
обл.,
%
осадки,
мм/ч
давл.,
гПа
погр.,
м
17 сентября, пт
пт1723:00+5зюз5108060 0.0 1004422
02:00+4з61276100 0.0 1003707
05:00+5з71282100 0.0 10021029
08:00+5зсз61186100 0.2 1002896
11:00+7зсз71071100 0.3 10031026
14:00+8сз81064100 0.0 10051196
17:00+9зсз8969100 0.1 10061245
20:00+7зсз61080100 0.2 10081047
18 сентября, сб
сб1823:00+6зсз6980100 0.3 1009887
02:00+6зсз5979100 0.1 1009764
05:00+4з598994 0.1 1009481
08:00+5зсз5882100 0.3 1009835
11:00+6з687799 0.3 1009857
14:00+5зсз698158 0.2 1010756
17:00+7зсз796352 0.3 10101182
20:00+4зсз612775 0.1 1011525
19 сентября, вс
вс1923:00+2зсз613795 0.1 1011663
02:00+4зсз81264100 0.0 10101173
05:00+3зсз81374100 0.0 10111103
08:00+3зсз81468100 0.0 10111222
11:00+6зсз101355100 0.0 10121464
14:00+6сз101361100 0.0 10141330
17:00+6сз9145994 0.0 10161333
20:00+4сз813635 0.0 1018951
20 сентября, пн
пн2023:00+2сз612695 0.0 1020702
02:00+1зсз410765 0.0 1021303
05:00+1сз487238 0.0 1023219
08:00+2сз59625 0.0 1025818
11:00+6ссз565078 0.0 10251158
14:00+8ссз454356 0.0 10261433
17:00+9с4544100 0.0 10261476
20:00+5св5763100 0.0 1028403
21 сентября, вт
вт2123:00+2ссв227585 0.0 103026
02:00+4ссв1364100 0.0 1030160
05:00+2ссз116644 0.0 103015
08:00+3з11649 0.0 103160
11:00+7юз11475 0.0 10291033
14:00+10юз334028 0.0 10271292
17:00+11зюз33374 0.0 10261314
20:00+6ююз33541 0.0 102624